Date String (YYYY-MM-DD hh:mm:ss) UTC,Instrument flags,Ambient pressure (hPa),Sample flow (lpm),Bypass flow (lpm),Sample temperature (°C),Ambient temperature (°C),ASC tube jacket temperature (°C),LED temperature (°C),Box temperature (°C),Sample RH (%),Span deviation,Mass concentration (μg/m³),Mass concentration (μg/m³),Mass concentration (μg/m³)
DateTimeUTC,F1_M11,P_M11,Q1_M11,Q2_M11,T1_M11,T2_M11,T3_M11,T4_M11,T5_M11,U1_M11,ZSPAN_M11,X0_M11,X2_M11,X1_M11
2021-09-24 09:00:00,,0829.9,5.01,0.00,30.0,28.9,00.0,39.1,31.7,11.8,0002.5,0018.70,0011.91,0010.99
2021-09-24 09:01:00,,0829.8,5.00,0.00,30.0,28.9,00.0,39.1,31.7,11.8,0002.3,0019.48,0011.90,0010.99
2021-09-24 09:02:00,,0829.8,5.01,0.00,30.0,28.9,00.0,39.1,31.7,11.8,0002.2,0019.22,0011.86,0010.98
2021-09-24 09:03:00,,0829.9,4.99,0.00,30.0,28.9,00.0,39.1,31.7,11.8,0002.5,0019.37,0011.85,0010.98
2021-09-24 09:04:00,,0829.9,5.00,0.00,30.0,28.9,00.0,39.1,31.7,11.8,0002.5,0019.99,0011.83,0010.98
2021-09-24 09:05:00,,0829.9,5.01,0.00,30.0,28.9,00.0,39.1,31.7,11.8,0002.6,0020.21,0011.85,0010.98
2021-09-24 09:06:00,,0829.9,4.99,0.00,30.0,28.9,00.0,39.1,31.7,11.8,0002.6,0020.27,0011.90,0011.03
2021-09-24 09:07:00,,0829.8,5.01,0.00,30.0,28.9,00.0,39.1,31.7,11.8,0002.4,0020.43,0011.91,0011.05
2021-09-24 09:08:00,,0829.8,5.00,0.00,30.0,28.9,00.0,39.2,31.7,11.8,0002.5,0020.43,0011.96,0011.09
2021-09-24 09:09:00,,0829.8,5.01,0.00,30.0,29.0,00.0,39.2,31.8,11.8,0002.4,0020.06,0012.00,0011.14
2021-09-24 09:10:00,,0829.8,5.00,0.00,30.0,29.0,00.0,39.2,31.7,11.8,0002.4,0019.73,0012.02,0011.18
2021-09-24 09:11:00,,0829.7,5.00,0.00,30.0,29.0,00.0,39.2,31.7,11.8,0002.5,0019.76,0012.03,0011.20
2021-09-24 09:12:00,,0829.7,4.99,0.00,30.1,29.0,00.0,39.2,31.7,11.8,0002.7,0018.83,0012.08,0011.25
2021-09-24 09:13:00,,0829.7,4.99,0.00,30.1,29.0,00.0,39.2,31.7,11.8,0002.8,0018.90,0012.11,0011.27
2021-09-24 09:14:00,,0829.8,5.01,0.00,30.1,29.0,00.0,39.2,31.7,11.8,0002.8,0019.41,0012.13,0011.28
2021-09-24 09:15:00,,0829.8,5.00,0.00,30.1,29.0,00.0,39.2,31.8,11.8,0002.9,0018.81,0012.14,0011.30
2021-09-24 09:16:00,,0829.8,4.99,0.00,30.1,29.1,00.0,39.2,31.8,11.8,0002.8,0018.52,0012.12,0011.33
2021-09-24 09:17:00,,0829.8,5.00,0.00,30.1,29.1,00.0,39.2,31.8,12.1,0002.7,0018.61,0012.10,0011.33
2021-09-24 09:18:00,,0829.9,5.01,0.00,30.1,29.1,00.0,39.2,31.9,12.5,0003.0,0019.29,0012.04,0011.28
2021-09-24 09:19:00,,0829.8,5.00,0.00,30.1,29.2,00.0,39.2,31.9,12.3,0003.0,0019.73,0012.00,0011.22
2021-09-24 09:20:00,,0829.9,5.01,0.00,30.1,29.2,00.0,39.2,31.9,12.1,0003.1,0020.96,0011.97,0011.17
2021-09-24 09:21:00,,0829.9,5.01,0.00,30.1,29.2,00.0,39.2,31.9,11.9,0003.1,0021.06,0011.98,0011.15
2021-09-24 09:22:00,,0829.8,4.99,0.00,30.1,29.2,00.0,39.2,31.8,11.8,0003.0,0021.01,0011.96,0011.12
2021-09-24 09:23:00,,0829.9,5.01,0.00,30.1,29.2,00.0,39.2,31.8,11.9,0002.9,0020.89,0011.92,0011.04
2021-09-24 09:24:00,,0829.8,5.00,0.00,30.1,29.2,00.0,39.2,31.8,11.9,0002.9,0020.66,0011.89,0011.02
2021-09-24 09:25:00,,0829.9,5.00,0.00,30.1,29.2,00.0,39.3,31.9,11.9,0002.9,0020.06,0011.87,0011.00
2021-09-24 09:26:00,,0829.9,5.00,0.00,30.1,29.2,00.0,39.3,31.9,11.9,0003.0,0020.11,0011.87,0010.98
2021-09-24 09:27:00,,0829.8,5.00,0.00,30.1,29.2,00.0,39.3,31.9,11.9,0003.2,0020.50,0011.86,0010.96
2021-09-24 09:28:00,,0830.0,5.01,0.00,30.1,29.3,00.0,39.3,31.9,11.8,0003.2,0020.96,0011.85,0010.94
2021-09-24 09:29:00,,0830.0,5.00,0.00,30.2,29.3,00.0,39.3,31.9,11.8,0002.9,0020.47,0011.86,0010.96
2021-09-24 09:30:00,,0830.1,5.00,0.00,30.2,29.3,00.0,39.3,32.0,12.2,0002.9,0020.31,0011.89,0010.98
2021-09-24 09:31:00,,0830.1,5.00,0.00,30.2,29.3,00.0,39.3,32.0,12.8,0002.9,0018.46,0011.86,0010.92
2021-09-24 09:32:00,,0830.1,5.00,0.00,30.2,29.3,00.0,39.3,32.0,12.6,0002.9,0019.22,0011.84,0010.83
2021-09-24 09:33:00,,0830.0,5.00,0.00,30.2,29.4,00.0,39.3,32.0,12.0,0002.8,0019.38,0011.81,0010.77
2021-09-24 09:34:00,,0830.0,5.01,0.00,30.2,29.4,00.0,39.3,32.0,11.9,0002.9,0019.48,0011.73,0010.75
2021-09-24 09:35:00,,0830.0,5.01,0.00,30.2,29.4,00.0,39.3,32.0,11.8,0003.1,0019.59,0011.68,0010.70
2021-09-24 09:36:00,,0830.0,4.99,0.00,30.2,29.4,00.0,39.3,32.0,12.0,0003.1,0019.48,0011.65,0010.67
2021-09-24 09:37:00,,0829.9,5.00,0.00,30.2,29.4,00.0,39.3,32.0,12.9,0002.9,0019.80,0011.61,0010.59
2021-09-24 09:38:00,,0830.0,4.99,0.00,30.2,29.4,00.0,39.4,32.0,12.7,0002.8,0019.39,0011.56,0010.48
2021-09-24 09:39:00,,0829.9,5.01,0.00,30.2,29.4,00.0,39.4,32.0,12.8,0002.6,0020.06,0011.52,0010.41
2021-09-24 09:40:00,,0829.9,5.01,0.00,30.2,29.4,00.0,39.4,32.0,12.7,0002.8,0020.73,0011.54,0010.34
2021-09-24 09:41:00,,0830.0,4.99,0.00,30.2,29.4,00.0,39.4,32.0,12.6,0002.7,0020.66,0011.46,0010.29
2021-09-24 09:42:00,,0830.0,5.01,0.00,30.2,29.4,00.0,39.4,32.0,12.6,0002.5,0021.06,0011.43,0010.28
2021-09-24 09:43:00,,0830.1,4.98,0.00,30.3,29.3,00.0,39.4,32.0,12.5,0002.5,0020.28,0011.36,0010.27
2021-09-24 09:44:00,,0830.1,4.99,0.00,30.3,29.3,00.0,39.4,32.0,12.5,0002.6,0020.20,0011.36,0010.24
2021-09-24 09:45:00,,0830.1,5.01,0.00,30.3,29.3,00.0,39.4,32.0,12.5,0002.6,0020.23,0011.38,0010.22
2021-09-24 09:46:00,,0830.1,4.99,0.00,30.3,29.3,00.0,39.4,32.0,12.7,0002.3,0020.42,0011.42,0010.21
2021-09-24 09:47:00,,0830.1,5.00,0.00,30.3,29.3,00.0,39.4,32.0,12.8,0002.2,0020.70,0011.47,0010.18
2021-09-24 09:48:00,,0830.1,5.01,0.00,30.3,29.3,00.0,39.4,32.0,12.6,0002.1,0020.34,0011.49,0010.17
2021-09-24 09:49:00,,0830.1,5.00,0.00,30.3,29.3,00.0,39.4,32.0,12.1,0002.1,0020.31,0011.49,0010.18
2021-09-24 09:50:00,,0830.1,5.00,0.00,30.3,29.4,00.0,39.4,32.0,12.2,0002.1,0019.00,0011.52,0010.22
2021-09-24 09:51:00,,0830.1,5.00,0.00,30.3,29.4,00.0,39.4,32.0,12.4,0002.2,0018.61,0011.49,0010.22
2021-09-24 09:52:00,,0830.1,5.02,0.00,30.3,29.4,00.0,39.4,32.0,12.2,0002.4,0019.19,0011.51,0010.24
2021-09-24 09:53:00,,0830.1,4.99,0.00,30.3,29.4,00.0,39.4,32.0,12.2,0002.3,0019.28,0011.53,0010.26
2021-09-24 09:54:00,,0830.1,5.00,0.00,30.3,29.4,00.0,39.4,32.0,12.3,0002.3,0019.78,0011.55,0010.29
2021-09-24 09:55:00,,0830.1,5.00,0.00,30.3,29.4,00.0,39.4,32.1,12.2,0002.4,0019.64,0011.52,0010.30
2021-09-24 09:56:00,,0830.1,5.01,0.00,30.3,29.4,00.0,39.4,32.0,12.2,0002.3,0019.49,0011.47,0010.27
2021-09-24 09:57:00,,0830.1,5.00,0.00,30.3,29.4,00.0,39.5,32.1,12.2,0002.4,0019.97,0011.41,0010.26
2021-09-24 09:58:00,,0830.1,5.00,0.00,30.3,29.4,00.0,39.5,32.1,12.2,0002.4,0019.98,0011.38,0010.25
2021-09-24 09:59:00,,0830.1,5.01,0.00,30.3,29.4,00.0,39.5,32.0,12.1,0002.3,0020.21,0011.37,0010.26
